Location: ????
(55.2778°N, 39.2433°E)
Time: 02:33:13
(UTC+00:00)

SAR-Lupe-4 - Pass Details

Date: 14 April 2024
Orbit: 476 x 482 km, 98.1° (Epoch: 02 April)

Event Time Altitude Azimuth Distance (km) Brightness Sun altitude
Rises 00:30:35 0° 13° (NNE) 2,547 8.2 -14.4°
Reaches altitude 10° 00:32:40 10° 9° (N) 1,664 7.0 -14.2°
Maximum altitude 00:36:11 60° 290° (WNW) 556 3.6 -13.8°
Enters shadow 00:38:08 24° 217° (SW) 1,033 4.6 -13.6°
